| time (UTC) | temp F | wind direction | speed MPH | gust MPH | rain 1hr in | rain 24hr in | rain mn in | humidity % | barometer mb |
| 20260504035546 | 59 | 31 | 6.0 | 11.0 | 0.00 | 0.00 | 0.00 | 36 | 1008.5 |
| 20260504035036 | 59 | 63 | 3.0 | 9.0 | 0.00 | 0.00 | 0.00 | 37 | 1008.4 |
| 20260504034656 | 59 | 59 | 1.0 | 3.0 | 0.00 | 0.00 | 0.00 | 36 | 1008.1 |
| 20260504034026 | 59 | 59 | 1.0 | 5.0 | 0.00 | 0.00 | 0.00 | 36 | 1008.1 |
| 20260504033521 | 60 | 59 | 2.0 | 5.0 | 0.00 | 0.00 | 0.00 | 35 | 1008.0 |
| 20260504033129 | 60 | 51 | 1.0 | 4.0 | 0.00 | 0.00 | 0.00 | 35 | 1008.2 |
| 20260504032525 | 60 | 34 | 2.0 | 4.0 | 0.00 | 0.00 | 0.00 | 35 | 1008.1 |
| 20260504032038 | 61 | 34 | 2.0 | 8.0 | 0.00 | 0.00 | 0.00 | 34 | 1008.1 |
| 20260504031703 | 61 | 51 | 2.0 | 8.0 | 0.00 | 0.00 | 0.00 | 34 | 1008.0 |
| 20260504031026 | 61 | 24 | 3.0 | 5.0 | 0.00 | 0.00 | 0.00 | 34 | 1007.9 |
| 20260504030541 | 62 | 42 | 3.0 | 8.0 | 0.00 | 0.00 | 0.00 | 33 | 1008.0 |
| 20260504030210 | 62 | 42 | 3.0 | 8.0 | 0.00 | 0.00 | 0.00 | 32 | 1007.9 |
| 20260504025543 | 62 | 61 | 3.0 | 12.0 | 0.00 | 0.00 | 0.00 | 32 | 1007.9 |
| 20260504025033 | 63 | 59 | 3.0 | 12.0 | 0.00 | 0.00 | 0.00 | 32 | 1007.8 |
| 20260504024700 | 63 | 60 | 4.0 | 8.0 | 0.00 | 0.00 | 0.00 | 32 | 1007.7 |
| 20260504024047 | 63 | 58 | 3.0 | 6.0 | 0.00 | 0.00 | 0.00 | 31 | 1007.6 |
| 20260504023525 | 64 | 59 | 3.0 | 6.0 | 0.00 | 0.00 | 0.00 | 28 | 1007.6 |
| 20260504023152 | 65 | 49 | 3.0 | 7.0 | 0.00 | 0.00 | 0.00 | 28 | 1007.5 |
| 20260504022539 | 65 | 34 | 3.0 | 7.0 | 0.00 | 0.00 | 0.00 | 28 | 1007.5 |
| 20260504022034 | 65 | 39 | 2.0 | 5.0 | 0.00 | 0.00 | 0.00 | 27 | 1007.5 |
| 20260504021652 | 66 | 31 | 3.0 | 9.0 | 0.00 | 0.00 | 0.00 | 27 | 1007.5 |
| 20260504021022 | 66 | 13 | 3.0 | 9.0 | 0.00 | 0.00 | 0.00 | 27 | 1007.5 |
| 20260504020524 | 67 | 31 | 4.0 | 13.0 | 0.00 | 0.00 | 0.00 | 26 | 1007.5 |
| 20260504020155 | 68 | 29 | 5.0 | 13.0 | 0.00 | 0.00 | 0.00 | 25 | 1007.5 |
| 20260504015530 | 69 | 20 | 4.0 | 9.0 | 0.00 | 0.00 | 0.00 | 24 | 1007.5 |
| 20260504015043 | 69 | 22 | 5.0 | 11.0 | 0.00 | 0.00 | 0.00 | 24 | 1007.4 |
| 20260504014654 | 70 | 39 | 6.0 | 12.0 | 0.00 | 0.00 | 0.00 | 24 | 1007.3 |
| 20260504014044 | 71 | 28 | 6.0 | 12.0 | 0.00 | 0.00 | 0.00 | 23 | 1007.3 |
| 20260504013524 | 71 | 28 | 5.0 | 13.0 | 0.00 | 0.00 | 0.00 | 23 | 1007.3 |
| 20260504013155 | 72 | 28 | 7.0 | 16.0 | 0.00 | 0.00 | 0.00 | 23 | 1007.3 |
| 20260504012527 | 72 | 20 | 7.0 | 16.0 | 0.00 | 0.00 | 0.00 | 23 | 1007.3 |
| 20260504012036 | 72 | 352 | 8.0 | 18.0 | 0.00 | 0.00 | 0.00 | 22 | 1007.3 |
| 20260504011654 | 72 | 25 | 11.0 | 18.0 | 0.00 | 0.00 | 0.00 | 22 | 1007.2 |
| 20260504011042 | 72 | 11 | 11.0 | 17.0 | 0.00 | 0.00 | 0.00 | 21 | 1007.3 |
| 20260504010527 | 72 | 341 | 12.0 | 20.0 | 0.00 | 0.00 | 0.00 | 21 | 1007.2 |
| 20260504010201 | 73 | 12 | 14.0 | 20.0 | 0.00 | 0.00 | 0.00 | 21 | 1007.3 |
| 20260504005536 | 73 | 23 | 11.0 | 20.0 | 0.00 | 0.00 | 0.00 | 21 | 1007.2 |
| 20260504005016 | 73 | 23 | 14.0 | 20.0 | 0.00 | 0.00 | 0.00 | 21 | 1007.3 |
| 20260504004647 | 73 | 9 | 11.0 | 19.0 | 0.00 | 0.00 | 0.00 | 21 | 1007.3 |
| 20260504004039 | 74 | 5 | 11.0 | 19.0 | 0.00 | 0.00 | 0.00 | 21 | 1007.3 |
| 20260504003542 | 73 | 333 | 8.0 | 14.0 | 0.00 | 0.00 | 0.00 | 21 | 1007.4 |
| 20260504003152 | 74 | 343 | 10.0 | 20.0 | 0.00 | 0.00 | 0.00 | 21 | 1007.3 |
| 20260504002518 | 74 | 346 | 12.0 | 21.0 | 0.00 | 0.00 | 0.00 | 21 | 1007.5 |
| 20260504002018 | 74 | 24 | 15.0 | 21.0 | 0.00 | 0.00 | 0.00 | 21 | 1007.3 |
| 20260504001653 | 74 | 14 | 11.0 | 17.0 | 0.00 | 0.00 | 0.00 | 21 | 1007.4 |
| 20260504001029 | 74 | 360 | 11.0 | 20.0 | 0.00 | 0.00 | 0.00 | 21 | 1007.6 |
| 20260504000535 | 74 | 16 | 11.0 | 25.0 | 0.00 | 0.00 | 0.00 | 21 | 1007.5 |
| 20260504000128 | 74 | 10 | 14.0 | 23.0 | 0.00 | 0.00 | 0.00 | 21 | 1007.5 |
| 20260503235536 | 74 | 15 | 13.0 | 20.0 | 0.00 | 0.00 | 0.00 | 21 | 1007.5 |
| 20260503235038 | 74 | 342 | 11.0 | 21.0 | 0.00 | 0.00 | 0.00 | 20 | 1007.4 |
| 20260503234704 | 74 | 343 | 13.0 | 20.0 | 0.00 | 0.00 | 0.00 | 20 | 1007.5 |
| 20260503234041 | 75 | 9 | 12.0 | 18.0 | 0.00 | 0.00 | 0.00 | 20 | 1007.5 |
| 20260503233536 | 75 | 21 | 10.0 | 18.0 | 0.00 | 0.00 | 0.00 | 20 | 1007.5 |
| 20260503233203 | 75 | 352 | 7.0 | 20.0 | 0.00 | 0.00 | 0.00 | 21 | 1007.4 |
| 20260503232521 | 75 | 15 | 15.0 | 20.0 | 0.00 | 0.00 | 0.00 | 20 | 1007.5 |
| 20260503232045 | 74 | 310 | 11.0 | 19.0 | 0.00 | 0.00 | 0.00 | 20 | 1007.5 |
| 20260503231636 | 74 | 327 | 13.0 | 18.0 | 0.00 | 0.00 | 0.00 | 20 | 1007.6 |
| 20260503231040 | 75 | 352 | 10.0 | 18.0 | 0.00 | 0.00 | 0.00 | 20 | 1007.6 |
| 20260503230518 | 74 | 9 | 12.0 | 22.0 | 0.00 | 0.00 | 0.00 | 20 | 1007.6 |
| 20260503230139 | 75 | 9 | 10.0 | 18.0 | 0.00 | 0.00 | 0.00 | 20 | 1007.5 |
| 20260503225541 | 75 | 352 | 8.0 | 20.0 | 0.00 | 0.00 | 0.00 | 19 | 1007.7 |
| 20260503225043 | 74 | 335 | 12.0 | 20.0 | 0.00 | 0.00 | 0.00 | 20 | 1007.7 |
| 20260503224645 | 74 | 298 | 10.0 | 19.0 | 0.00 | 0.00 | 0.00 | 20 | 1007.8 |
| 20260503224028 | 74 | 337 | 7.0 | 16.0 | 0.00 | 0.00 | 0.00 | 20 | 1007.8 |
| 20260503223537 | 74 | 344 | 11.0 | 19.0 | 0.00 | 0.00 | 0.00 | 20 | 1008.1 |
| 20260503223124 | 74 | 344 | 11.0 | 17.0 | 0.00 | 0.00 | 0.00 | 20 | 1007.9 |
| 20260503222521 | 74 | 17 | 8.0 | 23.0 | 0.00 | 0.00 | 0.00 | 20 | 1008.0 |
| 20260503222036 | 75 | 330 | 11.0 | 23.0 | 0.00 | 0.00 | 0.00 | 19 | 1008.1 |
| 20260503221701 | 74 | 317 | 9.0 | 19.0 | 0.00 | 0.00 | 0.00 | 20 | 1008.0 |
| 20260503221016 | 74 | 320 | 9.0 | 20.0 | 0.00 | 0.00 | 0.00 | 20 | 1008.2 |
| 20260503220537 | 74 | 13 | 11.0 | 17.0 | 0.00 | 0.00 | 0.00 | 20 | 1008.2 |
| 20260503220214 | 74 | 315 | 6.0 | 18.0 | 0.00 | 0.00 | 0.00 | 20 | 1008.3 |
| 20260503215540 | 74 | 319 | 9.0 | 19.0 | 0.00 | 0.00 | 0.00 | 19 | 1008.5 |
| 20260503215022 | 74 | 43 | 12.0 | 24.0 | 0.00 | 0.00 | 0.00 | 19 | 1008.3 |
| 20260503214656 | 74 | 17 | 13.0 | 24.0 | 0.00 | 0.00 | 0.00 | 20 | 1008.6 |
| 20260503214034 | 74 | 17 | 9.0 | 20.0 | 0.00 | 0.00 | 0.00 | 20 | 1008.6 |
| 20260503213537 | 74 | 360 | 12.0 | 20.0 | 0.00 | 0.00 | 0.00 | 20 | 1008.8 |
| 20260503213148 | 73 | 16 | 10.0 | 19.0 | 0.00 | 0.00 | 0.00 | 19 | 1008.8 |
| 20260503212542 | 73 | 321 | 7.0 | 22.0 | 0.00 | 0.00 | 0.00 | 20 | 1008.8 |
| 20260503212015 | 74 | 346 | 10.0 | 22.0 | 0.00 | 0.00 | 0.00 | 20 | 1008.9 |
| 20260503211623 | 74 | 321 | 9.0 | 19.0 | 0.00 | 0.00 | 0.00 | 19 | 1008.9 |
| 20260503211042 | 73 | 316 | 10.0 | 19.0 | 0.00 | 0.00 | 0.00 | 20 | 1008.9 |
| 20260503210539 | 73 | 17 | 9.0 | 21.0 | 0.00 | 0.00 | 0.00 | 19 | 1009.4 |
| 20260503210155 | 74 | 338 | 12.0 | 23.0 | 0.00 | 0.00 | 0.00 | 19 | 1009.3 |
| 20260503205519 | 74 | 326 | 11.0 | 32.0 | 0.00 | 0.00 | 0.00 | 20 | 1009.2 |
| 20260503205041 | 73 | 348 | 7.0 | 18.0 | 0.00 | 0.00 | 0.00 | 19 | 1009.4 |
| 20260503204638 | 74 | 294 | 11.0 | 18.0 | 0.00 | 0.00 | 0.00 | 18 | 1009.4 |
| 20260503204026 | 73 | 347 | 8.0 | 26.0 | 0.00 | 0.00 | 0.00 | 20 | 1009.4 |
| 20260503203621 | 74 | 334 | 11.0 | 26.0 | 0.00 | 0.00 | 0.00 | 20 | 1009.4 |
| 20260503203153 | 73 | 352 | 7.0 | 15.0 | 0.00 | 0.00 | 0.00 | 20 | 1009.5 |
| 20260503202542 | 73 | 9 | 7.0 | 22.0 | 0.00 | 0.00 | 0.00 | 20 | 1009.7 |
| 20260503202041 | 73 | 336 | 13.0 | 24.0 | 0.00 | 0.00 | 0.00 | 19 | 1009.7 |
| 20260503201658 | 73 | 352 | 5.0 | 19.0 | 0.00 | 0.00 | 0.00 | 19 | 1009.8 |
| 20260503201038 | 73 | 331 | 10.0 | 19.0 | 0.00 | 0.00 | 0.00 | 19 | 1009.8 |
| 20260503200519 | 73 | 338 | 10.0 | 19.0 | 0.00 | 0.00 | 0.00 | 19 | 1009.8 |
| 20260503200205 | 73 | 21 | 11.0 | 19.0 | 0.00 | 0.00 | 0.00 | 18 | 1009.8 |
| 20260503195536 | 72 | 338 | 7.0 | 18.0 | 0.00 | 0.00 | 0.00 | 19 | 1009.9 |
| 20260503195036 | 73 | 360 | 11.0 | 18.0 | 0.00 | 0.00 | 0.00 | 19 | 1010.0 |
| 20260503194633 | 72 | 18 | 11.0 | 19.0 | 0.00 | 0.00 | 0.00 | 19 | 1010.0 |
| 20260503194020 | 73 | 327 | 12.0 | 19.0 | 0.00 | 0.00 | 0.00 | 17 | 1010.0 |
| 20260503193520 | 73 | 352 | 13.0 | 19.0 | 0.00 | 0.00 | 0.00 | 18 | 1010.2 |
| 20260503193118 | 72 | 32 | 10.0 | 21.0 | 0.00 | 0.00 | 0.00 | 17 | 1010.1 |
| 20260503192531 | 73 | 348 | 10.0 | 20.0 | 0.00 | 0.00 | 0.00 | 17 | 1010.2 |
| 20260503192037 | 73 | 9 | 12.0 | 22.0 | 0.00 | 0.00 | 0.00 | 19 | 1010.2 |
| 20260503191644 | 73 | 337 | 8.0 | 22.0 | 0.00 | 0.00 | 0.00 | 18 | 1010.2 |
| 20260503191024 | 73 | 307 | 9.0 | 22.0 | 0.00 | 0.00 | 0.00 | 19 | 1010.3 |
| 20260503190533 | 73 | 311 | 12.0 | 22.0 | 0.00 | 0.00 | 0.00 | 19 | 1010.3 |
| 20260503190203 | 72 | 309 | 11.0 | 19.0 | 0.00 | 0.00 | 0.00 | 19 | 1010.4 |
| 20260503185542 | 71 | 338 | 11.0 | 19.0 | 0.00 | 0.00 | 0.00 | 19 | 1010.4 |
| 20260503185045 | 72 | 319 | 7.0 | 15.0 | 0.00 | 0.00 | 0.00 | 20 | 1010.6 |
| 20260503184628 | 72 | 332 | 5.0 | 25.0 | 0.00 | 0.00 | 0.00 | 21 | 1010.6 |
| 20260503184040 | 72 | 323 | 13.0 | 25.0 | 0.00 | 0.00 | 0.00 | 20 | 1010.7 |
| 20260503183523 | 72 | 321 | 8.0 | 16.0 | 0.00 | 0.00 | 0.00 | 20 | 1010.7 |
| 20260503183137 | 71 | 326 | 6.0 | 17.0 | 0.00 | 0.00 | 0.00 | 21 | 1010.9 |
| 20260503182540 | 71 | 323 | 10.0 | 19.0 | 0.00 | 0.00 | 0.00 | 21 | 1011.0 |
| 20260503182042 | 71 | 327 | 12.0 | 19.0 | 0.00 | 0.00 | 0.00 | 22 | 1011.0 |
| 20260503181639 | 71 | 322 | 7.0 | 15.0 | 0.00 | 0.00 | 0.00 | 21 | 1011.2 |
| 20260503181021 | 71 | 25 | 8.0 | 15.0 | 0.00 | 0.00 | 0.00 | 22 | 1011.2 |
| 20260503180535 | 71 | 346 | 6.0 | 19.0 | 0.00 | 0.00 | 0.00 | 23 | 1011.3 |
| 20260503180109 | 70 | 352 | 9.0 | 14.0 | 0.00 | 0.00 | 0.00 | 23 | 1011.5 |
| 20260503175540 | 70 | 252 | 6.0 | 14.0 | 0.00 | 0.00 | 0.00 | 24 | 1011.5 |
| 20260503175031 | 70 | 288 | 6.0 | 12.0 | 0.00 | 0.00 | 0.00 | 25 | 1011.5 |
| 20260503174648 | 69 | 5 | 3.0 | 15.0 | 0.00 | 0.00 | 0.00 | 26 | 1011.7 |
| 20260503174034 | 69 | 333 | 5.0 | 15.0 | 0.00 | 0.00 | 0.00 | 27 | 1011.7 |
| 20260503173542 | 69 | 272 | 3.0 | 10.0 | 0.00 | 0.00 | 0.00 | 30 | 1011.7 |
| 20260503173215 | 69 | 249 | 3.0 | 12.0 | 0.00 | 0.00 | 0.00 | 32 | 1011.9 |
| 20260503172541 | 68 | 304 | 7.0 | 12.0 | 0.00 | 0.00 | 0.00 | 33 | 1011.9 |
| 20260503172021 | 67 | 330 | 3.0 | 9.0 | 0.00 | 0.00 | 0.00 | 36 | 1011.9 |
| 20260503171614 | 67 | 321 | 4.0 | 11.0 | 0.00 | 0.00 | 0.00 | 37 | 1012.1 |
| 20260503171041 | 67 | 334 | 4.0 | 11.0 | 0.00 | 0.00 | 0.00 | 38 | 1012.2 |
| 20260503170530 | 66 | 298 | 8.0 | 11.0 | 0.00 | 0.00 | 0.00 | 39 | 1012.2 |
| 20260503170156 | 67 | 265 | 6.0 | 13.0 | 0.00 | 0.00 | 0.00 | 38 | 1012.3 |
| 20260503160149 | 62 | 264 | 11.0 | 13.0 | 0.00 | 0.00 | 0.00 | 46 | 1012.5 |
| 20260503150522 | 56 | 253 | 14.0 | 20.0 | 0.00 | 0.00 | 0.00 | 57 | 1013.2 |
| 20260503150203 | 56 | 237 | 13.0 | 19.0 | 0.00 | 0.00 | 0.00 | 57 | 1013.2 |
| 20260503140152 | 50 | 238 | 14.0 | 19.0 | 0.00 | 0.00 | 0.00 | 71 | 1013.6 |
| 20260503131045 | 43 | 219 | 9.0 | 11.0 | 0.00 | 0.00 | 0.00 | 78 | 1013.6 |
| 20260503130540 | 42 | 226 | 7.0 | 10.0 | 0.00 | 0.00 | 0.00 | 79 | 1013.6 |
| 20260503130153 | 41 | 226 | 7.0 | 9.0 | 0.00 | 0.00 | 0.00 | 80 | 1013.7 |
| 20260503120157 | 40 | 240 | 4.0 | 7.0 | 0.00 | 0.00 | 0.00 | 79 | 1014.0 |
| 20260503110539 | 43 | 243 | 5.0 | 9.0 | 0.00 | 0.00 | 0.00 | 74 | 1014.5 |
| 20260503110200 | 42 | 259 | 3.0 | 7.0 | 0.00 | 0.00 | 0.00 | 73 | 1014.7 |
| 20260503100209 | 40 | 288 | 1.0 | 2.0 | 0.00 | 0.00 | 0.00 | 71 | 1014.7 |
| 20260503090209 | 40 | 248 | 2.0 | 4.0 | 0.00 | 0.00 | 0.00 | 66 | 1015.1 |
| 20260503081048 | 43 | 207 | 0.0 | 2.0 | 0.00 | 0.00 | 0.00 | 59 | 1015.5 |
| 20260503080542 | 44 | 283 | 0.0 | 3.0 | 0.00 | 0.00 | 0.00 | 60 | 1015.4 |
| 20260503080205 | 45 | 283 | 1.0 | 3.0 | 0.00 | 0.00 | 0.00 | 61 | 1015.5 |
| 20260503072538 | 46 | 276 | 0.0 | 2.0 | 0.00 | 0.00 | 0.00 | 60 | 1015.8 |
| 20260503072032 | 46 | 276 | 0.0 | 2.0 | 0.00 | 0.00 | 0.00 | 61 | 1015.8 |
| 20260503071642 | 46 | 276 | 0.0 | 2.0 | 0.00 | 0.00 | 0.00 | 60 | 1015.7 |
| 20260503071038 | 46 | 254 | 0.0 | 2.0 | 0.00 | 0.00 | 0.00 | 60 | 1015.8 |
| 20260503070538 | 46 | 254 | 0.0 | 2.0 | 0.00 | 0.00 | 0.00 | 60 | 1015.7 |
| 20260503070202 | 46 | 254 | 0.0 | 5.0 | 0.00 | 0.00 | 0.00 | 60 | 1015.9 |
| 20260503060129 | 48 | 240 | 0.0 | 2.0 | 0.00 | 0.00 | 0.00 | 57 | 1015.7 |
| 20260503055028 | 48 | 240 | 0.0 | 2.0 | 0.00 | 0.00 | 0.00 | 57 | 1015.9 |
| 20260503054655 | 49 | 240 | 0.0 | 0.0 | 0.00 | 0.00 | 0.00 | 56 | 1015.8 |
| 20260503054040 | 49 | 240 | 0.0 | 1.0 | 0.00 | 0.00 | 0.00 | 56 | 1015.7 |
| 20260503053530 | 49 | 240 | 0.0 | 1.0 | 0.00 | 0.00 | 0.00 | 56 | 1015.8 |
| 20260503053215 | 49 | 240 | 0.0 | 2.0 | 0.00 | 0.00 | 0.00 | 55 | 1015.9 |
| 20260503052525 | 50 | 240 | 0.0 | 1.0 | 0.00 | 0.00 | 0.00 | 54 | 1016.0 |
| 20260503052035 | 50 | 240 | 0.0 | 0.0 | 0.00 | 0.00 | 0.00 | 53 | 1016.0 |
| 20260503051631 | 50 | 240 | 0.0 | 0.0 | 0.00 | 0.00 | 0.00 | 53 | 1015.8 |
| 20260503051025 | 50 | 240 | 0.0 | 2.0 | 0.00 | 0.00 | 0.00 | 53 | 1015.7 |
| 20260503050531 | 51 | 240 | 0.0 | 2.0 | 0.00 | 0.00 | 0.00 | 52 | 1015.8 |
| 20260503050214 | 51 | 240 | 0.0 | 2.0 | 0.00 | 0.00 | 0.00 | 51 | 1015.7 |
| 20260503045528 | 51 | 240 | 0.0 | 2.0 | 0.00 | 0.00 | 0.00 | 52 | 1015.8 |
| 20260503045025 | 51 | 240 | 0.0 | 2.0 | 0.00 | 0.00 | 0.00 | 52 | 1015.8 |
| 20260503044646 | 51 | 240 | 0.0 | 1.0 | 0.00 | 0.00 | 0.00 | 52 | 1015.9 |
| 20260503044039 | 51 | 240 | 0.0 | 2.0 | 0.00 | 0.00 | 0.00 | 52 | 1016.0 |
| 20260503043537 | 51 | 240 | 0.0 | 2.0 | 0.00 | 0.00 | 0.00 | 51 | 1015.9 |
| 20260503043115 | 51 | 240 | 0.0 | 2.0 | 0.00 | 0.00 | 0.00 | 51 | 1016.0 |
| 20260503042519 | 51 | 240 | 0.0 | 2.0 | 0.00 | 0.00 | 0.00 | 51 | 1016.1 |
| 20260503042025 | 51 | 240 | 0.0 | 2.0 | 0.00 | 0.00 | 0.00 | 51 | 1016.0 |
| 20260503041654 | 51 | 240 | 0.0 | 2.0 | 0.00 | 0.00 | 0.00 | 50 | 1015.9 |
| 20260503041015 | 52 | 240 | 0.0 | 3.0 | 0.00 | 0.00 | 0.00 | 50 | 1016.0 |
| 20260503040518 | 52 | 240 | 2.0 | 3.0 | 0.00 | 0.00 | 0.00 | 49 | 1015.8 |
| 20260503040159 | 52 | 240 | 2.0 | 3.0 | 0.00 | 0.00 | 0.00 | 48 | 1015.9 |